| time (UTC) | temp F | wind direction | speed MPH | gust MPH | rain 1hr in | rain 24hr in | rain mn in | humidity % | barometer mb |
| 20260906024559 | 61 | 103 | 1.0 | 3.0 | 0.00 | 0.00 | 0.00 | 63 | 1006.6 |
| 20260906024501 | 61 | 104 | 1.0 | 3.0 | 0.00 | 0.00 | 0.00 | 63 | 1006.6 |
| 20260906023057 | 61 | 93 | 1.0 | 3.0 | 0.00 | 0.00 | 0.00 | 63 | 1006.7 |
| 20260906021556 | 62 | 82 | 0.0 | 3.0 | 0.00 | 0.00 | 0.00 | 62 | 1006.4 |
| 20260906020100 | 62 | 89 | 0.0 | 4.0 | 0.00 | 0.00 | 0.00 | 61 | 1006.5 |
| 20260906014552 | 63 | 103 | 1.0 | 4.0 | 0.00 | 0.00 | 0.00 | 60 | 1006.6 |
| 20260906013102 | 62 | 93 | 2.0 | 7.0 | 0.00 | 0.00 | 0.00 | 59 | 1006.6 |
| 20260906011549 | 63 | 85 | 1.0 | 6.0 | 0.00 | 0.00 | 0.00 | 59 | 1006.6 |
| 20260906010045 | 63 | 88 | 2.0 | 8.0 | 0.00 | 0.00 | 0.00 | 59 | 1006.8 |
| 20260906004544 | 63 | 72 | 2.0 | 6.0 | 0.00 | 0.00 | 0.00 | 58 | 1006.8 |
| 20260906003041 | 63 | 93 | 2.0 | 7.0 | 0.00 | 0.00 | 0.00 | 57 | 1006.8 |
| 20260906001539 | 63 | 75 | 3.0 | 8.0 | 0.00 | 0.00 | 0.00 | 57 | 1006.8 |
| 20260906000037 | 64 | 82 | 2.0 | 7.0 | 0.00 | 0.00 | 0.00 | 56 | 1006.8 |
| 20260905234536 | 64 | 70 | 4.0 | 9.0 | 0.00 | 0.00 | 0.00 | 56 | 1006.7 |
| 20260905233040 | 64 | 108 | 2.0 | 7.0 | 0.00 | 0.00 | 0.00 | 55 | 1006.9 |
| 20260905231531 | 64 | 105 | 4.0 | 11.0 | 0.00 | 0.00 | 0.00 | 55 | 1007.0 |
| 20260905230028 | 64 | 94 | 2.0 | 10.0 | 0.00 | 0.00 | 0.00 | 53 | 1006.9 |
| 20260905224526 | 65 | 77 | 4.0 | 10.0 | 0.00 | 0.00 | 0.00 | 51 | 1007.0 |
| 20260905223022 | 65 | 80 | 5.0 | 11.0 | 0.00 | 0.00 | 0.00 | 49 | 1007.2 |
| 20260905221520 | 66 | 100 | 4.0 | 11.0 | 0.00 | 0.00 | 0.00 | 47 | 1007.3 |
| 20260905220018 | 66 | 93 | 0.0 | 8.0 | 0.00 | 0.00 | 0.00 | 46 | 1007.3 |
| 20260905214517 | 66 | 105 | 7.0 | 13.0 | 0.00 | 0.00 | 0.00 | 48 | 1007.4 |
| 20260905213014 | 67 | 82 | 1.0 | 9.0 | 0.00 | 0.00 | 0.00 | 46 | 1007.5 |
| 20260905211510 | 67 | 77 | 7.0 | 12.0 | 0.00 | 0.00 | 0.00 | 46 | 1007.6 |
| 20260905210010 | 67 | 87 | 7.0 | 15.0 | 0.00 | 0.00 | 0.00 | 43 | 1007.5 |
| 20260905204505 | 69 | 86 | 3.0 | 10.0 | 0.00 | 0.00 | 0.00 | 42 | 1007.5 |
| 20260905203005 | 67 | 84 | 4.0 | 11.0 | 0.00 | 0.00 | 0.00 | 41 | 1007.5 |
| 20260905201501 | 67 | 25 | 6.0 | 13.0 | 0.00 | 0.00 | 0.00 | 43 | 1007.6 |
| 20260905200107 | 67 | 106 | 2.0 | 9.0 | 0.00 | 0.00 | 0.00 | 41 | 1007.8 |
| 20260905200002 | 67 | 102 | 1.0 | 9.0 | 0.00 | 0.00 | 0.00 | 41 | 1007.8 |
| 20260905194559 | 68 | 15 | 3.0 | 10.0 | 0.00 | 0.00 | 0.00 | 40 | 1007.9 |
| 20260905193055 | 68 | 74 | 3.0 | 9.0 | 0.00 | 0.00 | 0.00 | 41 | 1008.1 |
| 20260905191553 | 69 | 58 | 3.0 | 7.0 | 0.00 | 0.00 | 0.00 | 39 | 1008.0 |
| 20260905190050 | 67 | 36 | 2.0 | 8.0 | 0.00 | 0.00 | 0.00 | 40 | 1008.2 |
| 20260905184549 | 67 | 345 | 3.0 | 7.0 | 0.00 | 0.00 | 0.00 | 38 | 1008.3 |
| 20260905183046 | 67 | 42 | 3.0 | 10.0 | 0.00 | 0.00 | 0.00 | 38 | 1008.4 |
| 20260905181544 | 67 | 318 | 6.0 | 13.0 | 0.00 | 0.00 | 0.00 | 39 | 1008.4 |
| 20260905180041 | 68 | 39 | 2.0 | 15.0 | 0.00 | 0.00 | 0.00 | 37 | 1008.5 |
| 20260905174538 | 68 | 79 | 2.0 | 5.0 | 0.00 | 0.00 | 0.00 | 43 | 1008.3 |
| 20260905173036 | 67 | 56 | 2.0 | 8.0 | 0.00 | 0.00 | 0.00 | 45 | 1008.3 |
| 20260905171537 | 67 | 58 | 4.0 | 8.0 | 0.00 | 0.00 | 0.00 | 44 | 1008.2 |
| 20260905170028 | 66 | 113 | 3.0 | 6.0 | 0.00 | 0.00 | 0.00 | 36 | 1008.1 |
| 20260905164525 | 66 | 86 | 5.0 | 9.0 | 0.00 | 0.00 | 0.00 | 35 | 1008.2 |
| 20260905163027 | 65 | 95 | 0.0 | 8.0 | 0.00 | 0.00 | 0.00 | 30 | 1008.1 |
| 20260905161519 | 65 | 103 | 2.0 | 7.0 | 0.00 | 0.00 | 0.00 | 38 | 1007.9 |
| 20260905160015 | 66 | 65 | 2.0 | 10.0 | 0.00 | 0.00 | 0.00 | 33 | 1008.1 |
| 20260905154510 | 66 | 117 | 2.0 | 8.0 | 0.00 | 0.00 | 0.00 | 17 | 1007.6 |
| 20260905153010 | 66 | 75 | 2.0 | 7.0 | 0.00 | 0.00 | 0.00 | 11 | 1007.8 |
| 20260905151505 | 65 | 288 | 1.0 | 4.0 | 0.00 | 0.00 | 0.00 | 14 | 1007.5 |
| 20260905150004 | 65 | 312 | 1.0 | 4.0 | 0.00 | 0.00 | 0.00 | 14 | 1007.5 |
| 20260905144602 | 64 | 309 | 0.0 | 5.0 | 0.00 | 0.00 | 0.00 | 14 | 1007.1 |
| 20260905143103 | 64 | 117 | 0.0 | 4.0 | 0.00 | 0.00 | 0.00 | 15 | 1007.2 |
| 20260905141550 | 61 | 89 | 0.0 | 3.0 | 0.00 | 0.00 | 0.00 | 16 | 1007.1 |
| 20260905140048 | 61 | 304 | 3.0 | 10.0 | 0.00 | 0.00 | 0.00 | 17 | 1006.8 |
| 20260905134543 | 60 | 157 | 0.0 | 4.0 | 0.00 | 0.00 | 0.00 | 16 | 1006.7 |
| 20260905133042 | 60 | 176 | 1.0 | 5.0 | 0.00 | 0.00 | 0.00 | 15 | 1006.6 |
| 20260905131539 | 60 | 360 | 1.0 | 6.0 | 0.00 | 0.00 | 0.00 | 15 | 1006.4 |
| 20260905130037 | 60 | 151 | 1.0 | 8.0 | 0.00 | 0.00 | 0.00 | 15 | 1005.9 |
| 20260905124536 | 60 | 229 | 1.0 | 6.0 | 0.00 | 0.00 | 0.00 | 12 | 1005.9 |
| 20260905123038 | 60 | 160 | 0.0 | 5.0 | 0.00 | 0.00 | 0.00 | 12 | 1005.9 |
| 20260905121537 | 60 | 268 | 2.0 | 6.0 | 0.00 | 0.00 | 0.00 | 16 | 1005.7 |
| 20260905120032 | 59 | 183 | 1.0 | 4.0 | 0.00 | 0.00 | 0.00 | 12 | 1005.5 |
| 20260905114527 | 59 | 181 | 0.0 | 3.0 | 0.00 | 0.00 | 0.00 | 16 | 1005.9 |
| 20260905113025 | 60 | 145 | 1.0 | 2.0 | 0.00 | 0.00 | 0.00 | 20 | 1005.8 |
| 20260905111523 | 60 | 294 | 0.0 | 4.0 | 0.00 | 0.00 | 0.00 | 14 | 1005.6 |
| 20260905110018 | 59 | 214 | 1.0 | 4.0 | 0.00 | 0.00 | 0.00 | 17 | 1005.9 |
| 20260905104520 | 59 | 70 | 0.0 | 1.0 | 0.00 | 0.00 | 0.00 | 23 | 1006.0 |
| 20260905103015 | 60 | 260 | 1.0 | 2.0 | 0.00 | 0.00 | 0.00 | 22 | 1005.9 |
| 20260905101512 | 59 | 46 | 0.0 | 1.0 | 0.00 | 0.00 | 0.00 | 23 | 1005.9 |
| 20260905100009 | 60 | 311 | 0.0 | 3.0 | 0.00 | 0.00 | 0.00 | 21 | 1006.0 |
| 20260905094507 | 60 | 188 | 0.0 | 3.0 | 0.00 | 0.00 | 0.00 | 21 | 1006.0 |
| 20260905093004 | 60 | 271 | 1.0 | 2.0 | 0.00 | 0.00 | 0.00 | 22 | 1006.0 |
| 20260905091501 | 59 | 156 | 0.0 | 3.0 | 0.00 | 0.00 | 0.00 | 21 | 1006.2 |
| 20260905090058 | 59 | 264 | 0.0 | 3.0 | 0.00 | 0.00 | 0.00 | 23 | 1006.2 |
| 20260905084605 | 59 | 242 | 1.0 | 5.0 | 0.00 | 0.00 | 0.00 | 23 | 1006.3 |
| 20260905083153 | 59 | 247 | 1.0 | 3.0 | 0.00 | 0.00 | 0.00 | 24 | 1006.4 |
| 20260905081550 | 59 | 76 | 0.0 | 2.0 | 0.00 | 0.00 | 0.00 | 26 | 1006.7 |
| 20260905074556 | 59 | 160 | 0.0 | 3.0 | 0.00 | 0.00 | 0.00 | 27 | 1006.7 |
| 20260905073042 | 59 | 68 | 0.0 | 3.0 | 0.00 | 0.00 | 0.00 | 26 | 1006.8 |
| 20260905071545 | 60 | 274 | 0.0 | 4.0 | 0.00 | 0.00 | 0.00 | 25 | 1006.6 |
| 20260905070032 | 59 | 166 | 1.0 | 3.0 | 0.00 | 0.00 | 0.00 | 26 | 1006.4 |
| 20260905064531 | 59 | 127 | 0.0 | 2.0 | 0.00 | 0.00 | 0.00 | 26 | 1006.5 |
| 20260905063028 | 59 | 252 | 1.0 | 6.0 | 0.00 | 0.00 | 0.00 | 27 | 1006.3 |
| 20260905061531 | 59 | 174 | 1.0 | 3.0 | 0.00 | 0.00 | 0.00 | 27 | 1006.2 |
| 20260905060046 | 58 | 10 | 0.0 | 1.0 | 0.00 | 0.00 | 0.00 | 29 | 1006.1 |
| 20260905054525 | 59 | 9 | 1.0 | 3.0 | 0.00 | 0.00 | 0.00 | 29 | 1006.2 |
| 20260905053020 | 59 | 17 | 0.0 | 2.0 | 0.00 | 0.00 | 0.00 | 30 | 1006.1 |
| 20260905051529 | 58 | 320 | 0.0 | 1.0 | 0.00 | 0.00 | 0.00 | 30 | 1006.0 |
| 20260905050017 | 59 | 272 | 1.0 | 3.0 | 0.00 | 0.00 | 0.00 | 31 | 1006.1 |
| 20260905044515 | 59 | 328 | 1.0 | 2.0 | 0.00 | 0.00 | 0.00 | 31 | 1006.0 |
| 20260905043017 | 59 | 316 | 0.0 | 4.0 | 0.00 | 0.00 | 0.00 | 30 | 1005.8 |
| 20260905041510 | 59 | 287 | 0.0 | 1.0 | 0.00 | 0.00 | 0.00 | 28 | 1005.7 |
| 20260905040009 | 59 | 266 | 1.0 | 3.0 | 0.00 | 0.00 | 0.00 | 29 | 1005.7 |
| 20260905034507 | 59 | 167 | 0.0 | 1.0 | 0.00 | 0.00 | 0.00 | 30 | 1005.7 |
| 20260905033005 | 59 | 167 | 0.0 | 1.0 | 0.00 | 0.00 | 0.00 | 29 | 1005.6 |
| 20260905031508 | 59 | 110 | 0.0 | 0.0 | 0.00 | 0.00 | 0.00 | 33 | 1005.4 |
| 20260905030002 | 59 | 107 | 0.0 | 0.0 | 0.00 | 0.00 | 0.00 | 32 | 1005.1 |